Location: Willingham
(52.3167°N, 0.0667°E)
Time: 06:18:20
(UTC+00:00)

Cosmos 405 Rocket - Pass Details

Date: 19 May 2025
Orbit: 413 x 447 km, 81.2° (Epoch: 18 June)

Event Time Altitude Azimuth Distance (km) Brightness Sun altitude
Rises 23:10:12 0° 340° (NNW) 2,464 7.8 -17.0°
Reaches altitude 10° 23:12:24 10° 330° (NNW) 1,581 6.3 -17.1°
Maximum altitude 23:15:32 33° 265° (W) 770 3.6 -17.2°
Enters shadow 23:16:32 27° 230° (SW) 885 3.6 -17.2°
